Regional Weather Roundup
Issued by NWS

Home | Current Version | Previous Version | Graphics & Text | Print | Product List | Glossary On
Versions: 1 2 3 4 5 6 7 8 9 10 11 12 13 14 15 16 17 18 19 20 21 22 23 24 25 26 27 28 29 30 31 32 33 34 35 36 37 38 39 40 41 42 43 44 45 46 47 48 49 50
414
ASUS43 KMPX 230601
RWRMN
WEATHER ROUNDUP FOR MINNESOTA
NATIONAL WEATHER SERVICE TWIN CITIES/CHANHASSEN MN
1200 AM CST THU NOV 23 2017


NOTE: "FAIR" INDICATES FEW OR NO CLOUDS BELOW 12,000 FEET WITH NO
SIGNIFICANT WEATHER AND/OR OBSTRUCTIONS TO VISIBILITY. N/A MEANS
CURRENT SKY AND/OR WEATHER CONDITIONS ARE NOT AVAILABLE.

MNZ060>063-068>070-230700-
   Twin Cities Metro

CITY           SKY/WX    TMP DP  RH WIND       PRES   REMARKS
TWIN CITIES    PTCLDY    30  18  60 SE6       29.94F WCI  24
6HR MIN TEMP:  30; 6HR MAX TEMP:  33;

ST PAUL        CLEAR     29  19  66 SE6       29.96F WCI  23
CRYSTAL        CLOUDY    30  15  53 CALM      29.93F
BLAINE         CLOUDY    28  19  69 CALM      29.93F
LAKEVILLE      CLOUDY    27  18  69 S3        29.93F
EDEN PRAIRIE   CLOUDY    30  17  58 S7        29.92F WCI  23
6HR MIN TEMP:  29; 6HR MAX TEMP:  33;

SOUTH ST PAUL  CLEAR     31  18  58 SE3       29.94F
LAKE ELMO      FAIR      30  19  64 SE3       29.96F
$$
MNZ001>005-007-008-013>017-022>024-027-028-230700-
   Northwest Minnesota

CITY           SKY/WX    TMP DP  RH WIND       PRES   REMARKS
BEMIDJI        CLOUDY    18  16  91 CALM      29.92F
HALLOCK        PTCLDY    18  16  93 CALM      29.94S
ROSEAU         CLOUDY    12   9  85 SW5       29.92F WCI   4
WARROAD        CLEAR     16  12  86 SW5       29.92F WCI   9
CROOKSTON      CLOUDY    19  18  93 CALM      29.96S
FOSSTON        CLEAR     16  12  86 CALM      29.93F
DETROIT LAKES  CLOUDY    23  18  80 CALM      29.93S
MOORHEAD       CLOUDY    21  16  79 CALM      29.95F
PARK RAPIDS    CLOUDY    19  14  81 CALM      29.92S
MAHNOMEN       FAIR      21  17  84 CALM      29.92F
$$
MNZ006-009>011-018-025>026-230700-
   North Central Minnesota

CITY           SKY/WX    TMP DP  RH WIND       PRES   REMARKS
BAUDETTE       CLOUDY    20  17  88 SW6       29.90F WCI  12
FLAG ISLAND    CLOUDY    19  18  93 SW6       29.90F WCI  11
INTL FALLS     CLOUDY    19  15  84 SW5       29.90F WCI  12
6HR MIN TEMP:  16; 6HR MAX TEMP:  21;

WASKISH        CLOUDY    21  18  86 CALM      29.93S
BIG FORK       CLOUDY    21  18  86 SW5       29.92F WCI  15
LONGVILLE      CLOUDY    12  10  92 CALM      29.94S
GRAND RAPIDS   MOCLDY    13  11  92 CALM      29.95S
CRANE LAKE     CLOUDY    16  14  93 CALM      29.94F
ORR            CLOUDY    18  14  86 CALM      29.89F
COOK           CLOUDY    18  16  93 CALM      29.93S
WALKER         FAIR      16  14  92 CALM      29.92F
$$
MNZ012-019>021-037-230700-
   Northeast Minnesota

CITY           SKY/WX    TMP DP  RH WIND       PRES   REMARKS
DULUTH         CLOUDY    22  19  89 W6        29.93F WCI  14
6HR MIN TEMP:  20; 6HR MAX TEMP:  22; 6HR PCP:  0.02;

ELY            MOCLDY    19  16  86 SW7       29.92S WCI  10
HIBBING        CLOUDY    19  17  92 SW5       29.94S WCI  12
EVELETH        CLOUDY    20  15  81 SW7       29.94R WCI  11
DULUTH HARBOR  CLOUDY    25  21  86 W3        29.99S
TWO HARBORS    CLOUDY    25  19  80 W7        29.93F WCI  17
SILVER BAY     CLOUDY    23  19  86 CALM      29.92F
GRAND MARAIS     N/A     26  18  71 W6        29.95F WCI  19
G MARAIS ARPRT CLOUDY    18  12  79 SW3       29.87F
$$
MNZ029>031-032-039>041-046>048-054>057-064-230700-
   West Central Minnesota

CITY           SKY/WX    TMP DP  RH WIND       PRES   REMARKS
FERGUS FALLS   CLOUDY    23  16  74 E5        29.95S WCI  17
WHEATON        CLOUDY    25  19  80 W3        29.95S
MORRIS         CLOUDY    25  16  68 CALM      29.91R
ALEXANDRIA     CLOUDY    20  16  84 NE3       29.91S
ELBOW LAKE     FAIR      22  19  89 CALM      29.92S FOG
WADENA         CLOUDY    18  12  79 NE3       29.92R
GLENWOOD       CLOUDY    21  16  79 CALM      29.90S
APPLETON       CLOUDY    23  16  74 CALM      29.92R
BENSON           N/A    N/A N/A N/A CALM        N/A
ORTONVILLE     CLOUDY    25  19  80 NW5       29.92R WCI  19
MADISON        CLOUDY    27  19  74 W7        29.93R WCI  19
WILLMAR        FAIR      23  18  80 CALM      29.92S
$$
MNZ033>034-036-042>043-049>051-058-059-230700-
   Central Minnesota

CITY           SKY/WX    TMP DP  RH WIND       PRES   REMARKS
ST CLOUD       CLOUDY    22  16  78 E6        29.92F WCI  14
6HR MIN TEMP:  21; 6HR MAX TEMP:  29;

SAUK CENTRE    FAIR      20  15  81 CALM      29.91S
PAYNESVILLE    CLOUDY    20  18  92 CALM      29.91F
AITKIN         CLOUDY    19  16  86 CALM      29.94R
PINE RIVER     CLOUDY    18  16  93 CALM      29.97S
BRAINERD       CLOUDY    19  16  88 NE5       29.93F WCI  12
STAPLES        CLOUDY    19  16  86 CALM      29.93R
LITTLE FALLS   CLOUDY    27  12  54 CALM      29.92F
LITCHFIELD     CLOUDY    25  19  80 CALM      29.91F
BUFFALO        CLOUDY    27  17  66 CALM      29.94S
MAPLE LAKE     CLOUDY    24  19  82 CALM      29.93S
HUTCHINSON     PTCLDY    23  18  81 CALM      29.92S
$$
MNZ037-044-045-052-053-230700-
   East Central Minnesota

CITY           SKY/WX    TMP DP  RH WIND       PRES   REMARKS
PRINCETON      CLOUDY    25  18  74 CALM      29.93S
MORA           CLOUDY    18  16  93 CALM      29.97R
CAMBRIDGE      CLOUDY    25  16  68 CALM      29.95S
RUSH CITY      CLOUDY    21  18  86 CALM      29.96S
MOOSE LAKE     CLOUDY    23  21  93 CALM      29.94F
HINCKLEY       CLOUDY    23  21  93 CALM      29.96S
CLOQUET        CLOUDY    21  19  93 CALM      29.94S
MCGREGOR       CLOUDY    23  21  93 CALM      29.95S
$$
MNZ071>073-080-081-089-090-097-098-230700-
   Southwest Minnesota

CITY           SKY/WX    TMP DP  RH WIND       PRES   REMARKS
MONTEVIDEO     CLOUDY    25  16  68 CALM      29.92R
GRANITE FALLS  CLOUDY    22  17  78 SW3       29.93S
CANBY          PTCLDY    34  25  69 NW5       29.93R WCI  30
MARSHALL       CLOUDY    29  21  72 CALM      29.93R
REDWOOD FALLS  CLOUDY    24  15  68 S3        29.91F
OLIVIA         CLOUDY    27  18  69 S3        29.91S
PIPESTONE      CLOUDY    25  16  68 W3        29.92F
WINDOM         CLOUDY    28  14  54 S5        29.92S WCI  23
WORTHINGTON    CLOUDY    30  20  66 SW10      29.93F WCI  21
JACKSON        CLOUDY    32  19  59 CALM      29.93S
SLAYTON        CLOUDY    31  15  50 W8        29.92S WCI  24
$$
MNZ065>067-074>077-082>085-091>093-230700-
   South Central Minnesota

CITY           SKY/WX    TMP DP  RH WIND       PRES   REMARKS
MANKATO        CLOUDY    28  18  66 S8        29.93F WCI  20
NEW ULM        CLOUDY    27  16  63 CALM      29.92F
ST JAMES       CLOUDY    28  18  64 S6        29.94S WCI  22
FAIRMONT       CLOUDY    25  18  74 S6        29.95F WCI  18
GLENCOE        CLOUDY    28  19  70 S3        29.92S
FARIBAULT      CLOUDY    28  18  64 S5        29.94F WCI  23
OWATONNA       CLOUDY    30  19  64 S10       29.94F WCI  21
WASECA         CLOUDY    28  18  64 S7        29.95F WCI  21
ALBERT LEA     CLEAR     30  16  55 S6        29.95F WCI  24
$$
MNZ078>079-086>088-094>096-230700-
   Southeast Minnesota

CITY           SKY/WX    TMP DP  RH WIND       PRES   REMARKS
ROCHESTER      CLEAR     29  18  63 S13       29.96F WCI  19
6HR MIN TEMP:  29; 6HR MAX TEMP:  32;

RED WING       CLOUDY    32  14  47 SE3       29.96F
STANTON        CLOUDY    30  20  65 S6        29.93F WCI  24
DODGE CENTER   CLEAR     27  18  69 S8        29.94F WCI  18
WINONA         CLOUDY    34  19  55 S3        30.01F
AUSTIN         CLEAR     28  18  64 S8        29.96F WCI  20
PRESTON        CLOUDY    30  17  57 S12       29.98F WCI  20
$$
ABBREVIATIONS USED IN REMARKS
   TC - TEMPERATURES IN CELSIUS
  WCI - WIND CHILL INDEX
   HX - HEAT INDEX
  VSB - VISIBILITY
$$




USA.gov is the U.S. government's official web portal to all federal, state and local government web resources and services.